CAPE
0 0 0 0 0 0 0 0 0 0 10 71 63 81 15 70 67 17 0 36 19 23
0 0 0 0 0 0 0 0 0 0 6 110 98 24 99 132 110 49 15 37 1 2
5 0 0 0 0 0 0 0 0 0 23 70 49 41 86 21 17 53 36 47 41 3
20 8 1 0 0 0 0 0 0 0 26 40 30 3 8 0 18 38 35 30 15 0
4 0 0 0 0 0 0 0 0 0 35 29 9 0 54 63 1 1 5 4 29 9
0 0 21 0 0 0 0 0 4 21 44 47 3 20 25 0 0 0 0 0 44 55
0 0 0 0 0 0 0 0 3 56 104 151 57 50 34 0 0 0 0 7 25 23
0 0 2 0 0 0 0 0 0 28 82 65 81 112 70 28 29 9 1 0 1 1
0 5 2 0 0 0 0 0 0 0 8 40 112 93 7 42 47 26 8 7 4 0
0 0 0 0 0 0 0 0 0 0 0 0 0 0 41 48 61 65 28 0 16 65
0 0 0 0 0 0 0 0 0 0 0 0 0 0 22 40 41 42 6 4 1 17
0 0 0 0 0 0 0 0 0 0 0 0 0 0 0 7 1 0 0 0 0 0
0 0 0 0 0 0 0 0 0 0 0 0 0 0 0 0 0 0 0 0 0 0
0 0 0 0 0 0 0 0 0 0 0 0 0 0 0 0 0 0 0 0 0 0
CIN
-0 -0 -0 -0 -0 -0 -0 -0 -0 -0 -93 -86 -95 -99 -153 -94 -95 -118 -0 -120 -135 -158
-0 -0 -0 -0 -0 -0 -0 -0 -0 -0 -48 -67 -82 -139 -89 -76 -65 -76 -112 -98 -18 -79
-100 -0 -0 -0 -0 -0 -0 -0 -0 -0 -82 -80 -94 -122 -106 -109 -94 -83 -73 -67 -67 -31
-86 -123 -95 -0 -0 -0 -0 -0 -0 -0 -74 -72 -102 -35 -128 -47 -106 -78 -77 -43 -67 -0
-95 -0 -0 -0 -0 -0 -0 -0 -0 -0 -71 -75 -111 -0 -90 -89 -0 -44 -83 -56 -34 -41
-6 -0 -92 -0 -0 -0 -0 -0 -15 -68 -66 -76 -18 -95 -95 -0 -0 -0 -0 -4 -27 -32
-0 -0 -0 -0 -0 -0 -0 -0 -55 -68 -50 -48 -78 -87 -88 -0 -0 -0 -0 -69 -48 -38
-0 -0 -48 -25 -0 -0 -0 -0 -0 -114 -59 -66 -75 -54 -76 -102 -81 -90 -0 -0 -34 -23
-0 -70 -36 -0 -0 -0 -0 -0 -0 -37 -135 -99 -66 -61 -105 -80 -58 -55 -60 -59 -22 -0
-0 -2 -0 -0 -0 -0 -0 -0 -0 -0 -0 -0 -0 -0 -61 -69 -58 -44 -64 -4 -42 -12
-0 -7 -0 -0 -0 -0 -0 -0 -0 -0 -0 -0 -0 -0 -59 -71 -64 -39 -78 -42 -52 -20
-0 -0 -0 -0 -0 -0 -0 -0 -0 -0 -0 -0 -0 -0 -0 -97 -132 -0 -0 -0 -0 -0
-0 -0 -0 -0 -0 -0 -0 -0 -0 -0 -0 -0 -0 -0 -0 -0 -0 -0 -0 -0 -0 -0
-0 -0 -0 -0 -0 -0 -0 -0 -0 -0 -0 -0 -0 -0 -0 -0 -0 -0 -0 -0 -0 -0
Wind_Speed
6 4 4 3 2 2 2 3 3 4 3 3 3 5 5 4 3 4 4 5 4 4
5 6 5 4 4 3 3 2 4 4 3 2 3 5 6 4 5 6 5 5 7 6
5 5 5 4 5 5 3 2 4 4 4 4 4 5 6 5 5 8 5 6 8 7
5 5 5 4 4 5 4 4 4 5 5 5 6 6 7 6 6 9 8 8 8 9
6 5 6 5 5 4 5 4 5 5 5 6 6 6 7 8 10 10 8 6 9 9
6 6 6 5 5 5 6 6 6 5 5 6 7 8 6 7 8 9 8 6 8 9
6 6 5 5 5 6 5 6 6 5 5 5 6 7 7 7 6 6 6 5 7 8
6 5 6 6 5 6 5 5 5 6 6 6 6 6 8 7 7 6 7 6 6 5
4 6 6 7 6 6 5 4 5 6 6 5 4 12 10 8 7 5 6 7 6 8
5 6 7 7 5 7 6 5 6 6 6 5 6 13 14 12 5 4 6 6 7 8
6 6 7 7 7 5 5 6 5 6 6 6 3 8 13 13 10 6 5 6 6 7
7 6 7 7 8 6 6 4 4 5 7 7 3 7 11 10 7 7 6 5 5 7
8 7 8 8 8 5 5 6 5 5 5 8 5 6 10 8 5 5 4 3 4 9
8 9 8 7 5 7 6 6 6 6 4 6 6 5 10 11 5 6 5 5 4 3
Wind_Direction
145 126 132 150 136 95 105 123 128 107 96 52 83 86 97 107 107 109 106 140 107 100
156 139 151 128 109 114 129 133 122 119 126 127 106 100 102 99 98 84 93 91 89 89
163 144 154 136 133 146 139 124 134 129 145 133 110 109 98 85 78 97 98 109 108 99
146 148 147 152 159 154 145 151 149 147 140 139 124 123 97 83 89 101 99 115 117 108
130 137 140 154 163 147 154 145 144 135 127 119 117 110 115 109 115 118 113 106 122 118
133 134 136 140 144 129 132 134 127 125 124 124 124 117 116 115 111 126 134 125 130 129
164 148 137 132 133 134 134 128 130 135 130 122 122 124 118 117 111 106 117 106 122 137
180 136 140 138 139 131 133 137 143 137 127 129 132 131 131 126 122 124 113 102 117 109
175 157 169 136 140 124 134 127 120 127 128 122 126 137 117 124 117 127 127 112 102 118
157 142 164 141 142 130 120 110 120 127 122 113 130 137 130 123 130 110 111 114 127 132
155 153 132 136 156 128 128 133 127 125 120 121 133 151 145 144 153 143 144 150 150 141
160 162 133 132 141 135 125 124 130 132 128 124 108 176 155 135 132 138 151 158 164 150
163 160 154 151 144 150 145 147 141 144 141 132 120 148 156 132 130 130 133 134 162 162
171 164 164 161 147 142 145 139 145 152 164 141 135 111 135 140 142 147 148 148 151 134